GW4379 Weather Reports


time (UTC)temp
C
wind
direction
speed
KPH
gust
KPH
rain 1hr
cm
rain 24hr
cm
rain mn
cm
humidity
%
barometer
mb
20260906061603 22 0 0.0 3.2 0.00 0.03 0.00 93 1012.3
20260906060059 22 0 0.0 1.6 0.00 0.03 0.00 93 1012.7
20260906054558 22 0 0.0 1.6 0.00 0.03 0.00 93 1012.7
20260906053058 22 13 0.0 4.8 0.00 0.03 0.00 93 1012.8
20260906051558 22 0 0.0 3.2 0.00 0.03 0.00 93 1013.1
20260906050116 22 0 0.0 3.2 0.00 0.03 0.00 92 1013.0
20260906044600 22 0 0.0 3.2 0.00 0.03 0.00 92 1013.1
20260906043108 22 0 0.0 1.6 0.00 0.03 0.00 92 1013.1
20260906041601 22 0 0.0 6.4 0.00 0.03 0.00 91 1012.8
20260906040114 23 0 0.0 3.2 0.00 0.03 0.00 91 1013.0
20260906034601 23 349 1.6 3.2 0.00 0.03 0.03 91 1013.0
20260906033101 23 333 1.6 3.2 0.00 0.03 0.03 91 1013.2
20260906031557 23 0 0.0 3.2 0.00 0.03 0.03 90 1013.4
20260906030125 23 79 0.0 3.2 0.00 0.03 0.03 90 1013.3
20260906024602 23 89 1.6 3.2 0.00 0.03 0.03 90 1013.4
20260906023121 23 0 1.6 9.7 0.00 0.03 0.03 90 1013.3
20260906021611 23 194 1.6 4.8 0.00 0.03 0.03 90 1012.9
20260906020100 23 0 0.0 3.2 0.00 0.03 0.03 90 1012.6
20260906014621 23 11 0.0 3.2 0.00 0.03 0.03 90 1012.4
20260906013104 23 11 1.6 3.2 0.00 0.03 0.03 89 1012.3
20260906011605 23 0 0.0 3.2 0.00 0.03 0.03 87 1012.5
20260906010105 24 0 0.0 3.2 0.00 0.03 0.03 87 1012.5
20260906004603 24 144 0.0 3.2 0.00 0.03 0.03 86 1012.3
20260906003106 25 153 0.0 3.2 0.00 0.03 0.03 86 1012.3
20260906001603 25 0 0.0 4.8 0.00 0.03 0.03 85 1012.1
20260906000101 25 217 0.0 3.2 0.00 0.03 0.03 82 1011.9
20260905234613 26 0 1.6 3.2 0.00 0.03 0.03 81 1011.7
20260905233058 26 5 0.0 3.2 0.00 0.03 0.03 81 1011.6
20260905231556 26 5 0.0 3.2 0.00 0.03 0.03 77 1011.6
20260905224609 27 0 0.0 3.2 0.00 0.03 0.03 72 1011.8
20260905223056 26 0 0.0 3.2 0.00 0.03 0.03 75 1011.9
20260905221601 26 0 0.0 3.2 0.00 0.03 0.03 77 1011.7
20260905214606 26 0 0.0 3.2 0.00 0.03 0.03 78 1012.1
20260905213059 26 360 1.6 3.2 0.00 0.03 0.03 79 1012.1
20260905211602 25 0 0.0 3.2 0.00 0.03 0.03 81 1012.4
20260905210059 25 333 1.6 4.8 0.00 0.03 0.03 81 1012.4
20260905204556 25 334 1.6 4.8 0.00 0.03 0.03 80 1012.6
20260905203105 25 333 1.6 4.8 0.00 0.03 0.03 81 1012.4
20260905201606 24 329 1.6 6.4 0.00 0.03 0.03 81 1012.5
20260905200100 25 345 3.2 8.0 0.00 0.03 0.03 81 1013.0
20260905194558 25 241 4.8 8.0 0.00 0.03 0.03 81 1012.8
20260905193101 24 331 3.2 8.0 0.03 0.03 0.03 82 1013.3
20260905191613 24 9 3.2 12.9 0.03 0.03 0.03 84 1013.6
20260905190057 25 360 3.2 8.0 0.03 0.03 0.03 84 1013.4
20260905184610 26 333 1.6 16.1 0.03 0.03 0.03 80 1013.3
20260905183102 28 336 14.5 32.2 0.00 0.00 0.00 63 1013.0
20260905181559 32 352 3.2 8.0 0.00 0.00 0.00 55 1012.7
20260905180055 33 14 4.8 6.4 0.00 0.00 0.00 53 1012.7
20260905174609 34 323 3.2 6.4 0.00 0.00 0.00 54 1012.9
20260905173110 34 0 1.6 12.9 0.00 0.00 0.00 55 1013.1
20260905171558 33 9 1.6 9.7 0.00 0.00 0.00 58 1012.9
20260905170058 33 22 4.8 8.0 0.00 0.00 0.00 56 1013.3
20260905164600 33 240 4.8 9.7 0.00 0.00 0.00 61 1013.8
20260905163107 32 323 1.6 8.0 0.00 0.00 0.00 60 1013.9
20260905161558 32 292 0.0 6.4 0.00 0.00 0.00 60 1014.1
20260905160059 32 319 1.6 3.2 0.00 0.00 0.00 60 1014.1
20260905154605 32 203 1.6 4.8 0.00 0.00 0.00 61 1014.2
20260905153106 31 194 3.2 6.4 0.00 0.00 0.00 63 1014.2
20260905151559 31 304 1.6 3.2 0.00 0.00 0.00 64 1014.3
20260905150054 31 215 0.0 8.0 0.00 0.00 0.00 66 1014.3
20260905144601 30 250 0.0 3.2 0.00 0.00 0.00 71 1014.3
20260905143100 29 174 1.6 4.8 0.00 0.00 0.00 75 1014.4
20260905141612 28 246 1.6 8.0 0.00 0.00 0.00 75 1014.6
20260905140106 28 210 1.6 3.2 0.00 0.00 0.00 78 1014.6
20260905134607 28 207 1.6 3.2 0.00 0.00 0.00 78 1014.8
20260905133100 27 67 0.0 3.2 0.00 0.00 0.00 79 1014.8
20260905131601 27 352 0.0 3.2 0.00 0.00 0.00 83 1014.8
20260905130100 26 352 0.0 3.2 0.00 0.00 0.00 85 1014.9
20260905124606 25 0 0.0 3.2 0.00 0.00 0.00 87 1014.7
20260905123100 24 61 0.0 3.2 0.00 0.00 0.00 89 1014.7
20260905121558 23 0 0.0 3.2 0.00 0.00 0.00 92 1014.7
20260905120059 22 0 0.0 0.0 0.00 0.00 0.00 93 1014.6
20260905114633 22 0 0.0 3.2 0.00 0.00 0.00 93 1014.4
20260905113104 22 67 1.6 3.2 0.00 0.00 0.00 93 1014.4
20260905111601 22 0 0.0 3.2 0.00 0.00 0.00 93 1014.1
20260905110057 22 82 0.0 3.2 0.00 0.00 0.00 92 1013.9
20260905104559 22 82 0.0 1.6 0.00 0.00 0.00 92 1013.8
20260905103059 22 82 0.0 3.2 0.00 0.00 0.00 92 1013.7
20260905101600 22 0 0.0 0.0 0.00 0.00 0.00 92 1013.5
20260905100114 22 0 0.0 3.2 0.00 0.00 0.00 92 1013.4
20260905094622 22 0 0.0 1.6 0.00 0.00 0.00 91 1013.5
20260905093059 22 0 0.0 3.2 0.00 0.00 0.00 91 1013.4
20260905091614 22 82 1.6 3.2 0.00 0.00 0.00 91 1013.4
20260905090100 22 82 1.6 3.2 0.00 0.00 0.00 91 1013.4
20260905084604 22 0 0.0 3.2 0.00 0.05 0.00 90 1013.7
20260905083102 22 0 0.0 3.2 0.00 0.05 0.00 90 1013.7
20260905081555 23 0 0.0 1.6 0.00 0.05 0.00 90 1013.7
20260905080059 23 0 0.0 0.0 0.00 0.05 0.00 90 1013.8
20260905074602 23 0 0.0 3.2 0.00 0.94 0.00 89 1014.0
20260905073107 23 0 0.0 3.2 0.00 0.94 0.00 89 1014.0
20260905071555 23 0 0.0 3.2 0.00 0.94 0.00 89 1014.2
20260905070101 23 0 0.0 3.2 0.00 0.94 0.00 88 1014.2
20260905064611 23 13 0.0 3.2 0.00 0.94 0.00 88 1014.2
20260905063110 24 73 0.0 3.2 0.00 0.94 0.00 87 1014.4